Weather History for Dubuque, IA

Change the Weather History Date:

Tuesday, February 5, 2013

  Actual Average Record
Temperature  
Mean Temperature 20 °F 21 °F  
Max Temperature 31 °F 29 °F 60 °F (1946)
Min Temperature 9 °F 13 °F -27 °F (1979)
Degree Days  
Heating Degree Days 45 44  
Month to date heating degree days 262 223  
Since 1 July heating degree days 4311 4460  
Cooling Degree Days 0 0  
Month to date cooling degree days 0 0  
Year to date cooling degree days 0 0  
Moisture  
Dew Point 18 °F    
Average Humidity 80    
Maximum Humidity 92    
Minimum Humidity 68    
Precipitation  
Precipitation 0.03 in 0.04 in 0.94 in (1911)
Month to date precipitation 0.22 0.21  
Year to date precipitation 1.96 1.38  
Snow  
Snow 0.50 in 0.30 in - ()
Month to date snowfall 3.4 1.8  
Since 1 July snowfall 29.2 26.4  
Snow Depth 6.00 in    
Sea Level Pressure  
Sea Level Pressure 29.89 in    
Wind  
Wind Speed 11 mph (West)    
Max Wind Speed 37 mph    
Max Gust Speed 41 mph    
Visibility 6 miles    
Events Snow    
T = Trace of Precipitation, MM = Missing Value Source: NWS Daily Summary

Daily Weather History Graph

Daily Weather History Graph

Search for Another Location

Airport:

Trip Planner

Search our weather history database for the weather conditions in past years. The results will help you decide how hot, cold, wet, or windy it might be!

Date:

Astronomy

Feb. 05, 2013 Rise Set
Actual Time 7:11 AM CST 5:22 PM CST
Civil Twilight 6:42 AM CST 5:51 PM CST
Nautical Twilight 6:08 AM CST 6:25 PM CST
Astronomical Twilight 5:36 AM CST 6:58 PM CST
Moon 2:56 AM CST (2/5) 12:37 PM CST (2/5)
Length of Visible Light 11h 09m
Length of Day
10h 10m
Waning Crescent, 26% of the Moon is Illuminated
Feb 5
Waning Crescent
Feb 10
New
Feb 17
First Quarter
Feb 25
Full
Mar 4
Last Quarter

Hourly Weather History & Observations

Time (CST) Temp. Windchill Dew Point Humidity Pressure Visibility Wind Dir Wind Speed Gust Speed Precip Events Conditions
12:53 AM 10.0 °F 0.4 °F 6.1 °F 84% 29.95 in 10.0 mi South 5.8 mph - N/A   Partly Cloudy
1:53 AM 10.0 °F -1.9 °F 6.1 °F 84% 29.93 in 10.0 mi South 8.1 mph - N/A   Partly Cloudy
2:53 AM 12.9 °F -0.9 °F 9.0 °F 84% 29.92 in 10.0 mi SSW 11.5 mph - N/A   Overcast
3:15 AM 14.0 °F 1.2 °F 10.4 °F 86% 29.85 in 2.0 mi SSW 10.4 mph - 0.00 in Snow Light Snow
3:22 AM 14.0 °F 2.0 °F 10.4 °F 86% 29.85 in 1.2 mi SSW 9.2 mph - 0.00 in Snow Light Snow
3:53 AM 14.0 °F -0.2 °F 10.9 °F 88% 29.88 in 1.2 mi South 12.7 mph - 0.01 in Snow Light Snow
4:22 AM 15.8 °F 1.4 °F 12.2 °F 86% 29.81 in 2.0 mi SSW 13.8 mph - 0.01 in Snow Light Snow
4:37 AM 15.8 °F 2.1 °F 12.2 °F 86% 29.81 in 4.0 mi SSW 12.7 mph - 0.01 in Snow Light Snow
4:53 AM 15.1 °F 2.5 °F 12.0 °F 88% 29.88 in 6.0 mi SSW 10.4 mph - 0.01 in   Overcast
5:53 AM 16.0 °F 1.1 °F 12.9 °F 88% 29.85 in 5.0 mi SSW 15.0 mph - N/A   Overcast
6:37 AM 15.8 °F 1.4 °F 14.0 °F 93% 29.78 in 4.0 mi SSW 13.8 mph - N/A   Mostly Cloudy
6:53 AM 17.1 °F 2.5 °F 14.0 °F 88% 29.83 in 5.0 mi SSW 15.0 mph - N/A   Mostly Cloudy
7:53 AM 18.0 °F 4.8 °F 15.1 °F 88% 29.83 in 4.0 mi SSW 12.7 mph - N/A   Mostly Cloudy
8:34 AM 19.4 °F 6.0 °F 17.6 °F 93% 29.77 in 5.0 mi SSW 13.8 mph - N/A   Mostly Cloudy
8:53 AM 21.0 °F 7.6 °F 18.0 °F 88% 29.82 in 5.0 mi SW 15.0 mph - N/A   Overcast
9:13 AM 21.2 °F 6.8 °F 17.6 °F 86% 29.75 in 5.0 mi SW 17.3 mph - N/A   Overcast
9:53 AM 21.9 °F 9.8 °F 19.0 °F 89% 29.83 in 5.0 mi SW 12.7 mph - N/A   Overcast
10:53 AM 24.1 °F 12.5 °F 19.0 °F 81% 29.83 in 5.0 mi WSW 12.7 mph - N/A   Haze
11:05 AM 24.8 °F 14.0 °F 19.4 °F 80% 29.78 in 1.0 mi WSW 11.5 mph - 0.00 in Snow Light Snow
11:53 AM 26.1 °F 15.6 °F 21.9 °F 84% 29.85 in 4.0 mi West 11.5 mph - 0.01 in   Overcast
12:25 PM 26.6 °F 15.7 °F 21.2 °F 80% 29.79 in 1.8 mi West 12.7 mph - 0.00 in Snow Light Snow
12:35 PM 26.6 °F 14.7 °F 21.2 °F 80% 29.79 in 3.0 mi West 15.0 mph - 0.00 in Snow Light Snow
12:49 PM 26.6 °F 15.7 °F 21.2 °F 80% 29.80 in 1.8 mi WNW 12.7 mph - 0.00 in Snow Light Snow
12:53 PM 26.1 °F 14.5 °F 23.0 °F 88% 29.86 in 1.0 mi WNW 13.8 mph - 0.00 in Snow Light Snow
1:05 PM 26.6 °F 15.7 °F 23.0 °F 86% 29.80 in 3.0 mi West 12.7 mph - 0.00 in Snow Light Snow
1:12 PM 26.6 °F 16.8 °F 23.0 °F 86% 29.80 in 4.0 mi WNW 10.4 mph - 0.00 in   Overcast
1:53 PM 28.9 °F 18.6 °F 24.1 °F 82% 29.87 in 6.0 mi NW 12.7 mph - 0.00 in   Haze
2:20 PM 28.4 °F 18.0 °F 24.8 °F 86% 29.83 in 7.0 mi NW 12.7 mph 20.7 mph N/A   Overcast
2:34 PM 30.2 °F 20.2 °F 24.8 °F 80% 29.84 in 7.0 mi NW 12.7 mph 20.7 mph N/A   Overcast
2:53 PM 30.0 °F 20.0 °F 24.1 °F 79% 29.90 in 8.0 mi NW 12.7 mph 20.7 mph N/A   Overcast
3:53 PM 30.9 °F 19.4 °F 24.1 °F 76% 29.93 in 10.0 mi NW 17.3 mph - N/A   Overcast
4:53 PM 30.9 °F 20.2 °F 24.1 °F 76% 29.96 in 10.0 mi NW 15.0 mph - N/A   Overcast
5:53 PM 30.9 °F 22.2 °F 24.1 °F 76% 29.99 in 10.0 mi NNW 10.4 mph - N/A   Overcast
6:53 PM 30.0 °F 20.5 °F 23.0 °F 75% 30.01 in 10.0 mi NNW 11.5 mph - N/A   Overcast
7:53 PM 30.0 °F 22.4 °F 21.9 °F 72% 30.03 in 10.0 mi North 8.1 mph - N/A   Overcast
8:53 PM 28.0 °F 20.8 °F 21.0 °F 75% 30.05 in 9.0 mi North 6.9 mph - N/A   Overcast
9:53 PM 26.1 °F 16.8 °F 18.0 °F 71% 30.08 in 10.0 mi North 9.2 mph - N/A   Mostly Cloudy
10:53 PM 24.1 °F 18.2 °F 17.1 °F 75% 30.11 in 10.0 mi North 4.6 mph - N/A   Scattered Clouds
11:53 PM 18.0 °F 9.8 °F 14.0 °F 84% 30.13 in 8.0 mi NW 5.8 mph - N/A   Clear